Location: Betpouey
(42.8833°N, 0.0333°E)
Time: 08:27:23
(UTC+00:00)

Cosmos 1328 Rocket - Pass Details

Date: 01 December 2020
Orbit: 602 x 626 km, 82.5° (Epoch: 17 January)

Event Time Altitude Azimuth Distance (km) Brightness Sun altitude
Rises 17:32:36 0° 188° (S) 2,842 7.4 -11.8°
Reaches altitude 10° 17:34:48 10° 190° (S) 1,946 6.5 -12.2°
Maximum altitude 17:39:06 83° 278° (W) 618 3.6 -13.0°
Drops below altitude 10° 17:43:29 10° 7° (N) 1,974 5.9 -13.7°
Sets 17:45:43 0° 8° (N) 2,888 6.7 -14.1°
